SCP
-0 -0 -0 0 0 0 0 0 -0 0 0 0 0 0 0 0 0 0 0 0 0 0 0 0 0 0 0 0 0 -0 -0 0 -0 -0 -0 0 0 0 0 0 0 0 0
-0 -0 -0 0 0 0 0 0 0 0 0 0 -0 0 0 0 0 0 0 0 0 0 -0 0 -0 0 0 0 0 -0 -0 -0 0 0 0 -0 0 0 0 0 0 0 0
-0 -0 0 -0 -0 0 0 1 0 0 0 0 0 0 0 0 0 0 0 0 0 0 0 0 0 0 0 0 -0 -0 -0 0 0 0 0 0 1 1 1 1 1 0 0
-0 -0 0 0 0 0 0 0 0 0 0 1 1 0 0 0 0 -0 0 0 -0 -0 0 0 0 0 0 0 0 0 0 0 0 0 1 1 1 1 1 1 1 1 0
-0 0 0 1 0 0 0 1 0 1 1 0 0 1 0 0 0 0 0 0 0 0 0 0 0 0 0 0 1 1 0 0 0 0 0 1 1 1 1 1 1 1 1
0 0 0 1 1 1 0 1 0 0 0 0 0 0 0 0 0 0 0 0 0 0 0 0 0 0 0 0 0 0 0 1 0 1 0 0 1 1 1 1 1 0 0
0 1 1 0 1 1 1 1 1 0 0 -0 -0 0 0 0 -0 -0 -0 0 0 0 0 0 0 0 0 0 1 0 0 0 0 0 1 1 1 1 0 1 1 1 1
1 1 1 1 1 1 1 1 1 0 0 0 -0 -0 -0 -0 -0 -0 -0 -0 -0 0 0 0 0 1 0 0 0 0 1 1 1 1 1 1 1 1 1 1 1 1 1
1 1 1 1 1 1 1 1 0 0 0 0 0 0 -0 -0 0 0 0 0 0 0 0 0 1 1 0 0 0 0 0 0 0 0 0 0 0 0 0 1 1 1 1
1 1 1 1 1 1 1 1 1 0 0 0 0 -0 -0 0 0 0 0 0 0 0 1 1 0 0 0 0 0 0 0 0 0 0 0 0 0 0 0 0 1 1 1
3 3 2 2 1 1 1 1 1 1 1 1 0 0 0 0 0 0 0 0 0 1 0 0 0 0 0 0 0 0 0 0 0 0 0 0 0 0 0 1 1 1 1
2 2 3 2 2 1 1 1 1 2 1 1 1 1 2 1 0 0 0 0 0 0 0 0 0 0 0 0 0 0 0 0 0 0 0 0 0 0 0 0 0 1 1
1 1 2 2 2 1 1 2 2 2 3 2 3 2 3 1 0 0 0 0 0 0 0 0 0 0 0 0 0 0 0 0 0 0 0 0 0 0 -0 -0 0 0 0
1 1 1 1 2 2 2 2 3 3 3 4 4 4 2 2 1 0 0 0 0 0 0 0 0 0 0 0 0 0 0 0 0 0 0 0 0 0 0 0 0 0 0
1 1 1 1 1 1 0 0 0 0 0 1 1 2 1 2 1 0 0 0 0 0 0 0 0 0 0 0 0 0 0 0 0 0 0 0 0 0 0 0 0 0 0
1 1 1 1 1 1 1 0 0 0 1 0 0 0 0 0 0 0 0 0 0 0 0 0 0 0 0 0 0 0 0 0 0 0 0 0 0 0 0 0 0 0 0
0 1 1 1 1 1 1 -0 0 0 0 0 0 0 0 0 0 0 0 0 0 0 0 0 0 0 0 0 0 0 0 0 0 0 0 0 0 0 0 0 0 0 0
0 0 0 1 1 1 1 1 0 0 0 0 0 0 0 0 0 0 0 0 0 0 0 0 0 0 0 0 0 0 0 0 0 0 0 0 0 0 0 0 0 0 0
0 0 0 1 0 1 2 2 1 1 0 0 0 0 0 0 0 0 0 0 0 0 0 0 0 0 0 0 0 0 0 0 0 0 -0 -0 -0 -0 0 0 0 0 0
0 0 0 0 1 1 1 1 0 1 0 0 0 0 0 0 0 0 0 0 0 0 0 0 0 0 0 0 0 0 0 0 0 0 0 0 0 -0 -0 0 0 0 0
0 0 0 0 1 1 1 0 0 0 0 0 0 0 0 0 0 0 0 0 0 0 0 0 0 0 0 0 0 0 0 0 0 0 0 0 0 0 0 0 0 0 0
0 0 0 1 1 0 1 1 1 0 0 0 0 0 0 0 0 0 0 0 -0 0 0 0 0 0 0 0 0 0 0 0 0 0 0 -0 0 0 0 0 0 0 0
-0 0 0 1 1 0 2 1 0 0 0 0 0 0 0 0 0 0 0 0 0 0 0 0 0 0 0 0 0 0 0 0 0 0 0 0 0 0 0 0 0 0 0
-0 0 -0 0 1 1 1 2 2 0 0 0 0 0 0 0 0 -0 -0 -0 0 0 0 0 0 0 0 0 0 0 0 0 0 0 0 0 0 0 0 0 0 0 0
-0 -0 0 -0 0 1 2 1 2 1 0 0 0 0 0 0 -0 -0 -0 -0 0 0 0 0 0 0 0 0 0 0 0 0 0 0 0 0 0 0 0 0 0 0 0
0 0 0 0 1 1 1 1 1 1 1 1 0 0 -0 -0 -0 -0 -0 0 0 -0 0 0 0 0 0 0 0 0 0 0 0 0 0 0 0 0 0 0 0 0 0
Wind_Speed_500mb
30 36 33 33 35 36 39 37 33 45 37 42 35 33 28 25 23 22 22 23 16 16 16 20 22 21 24 26 26 21 17 25 29 29 29 26 9 13 16 17 27 31 34
33 37 37 34 30 32 42 41 35 53 39 36 30 32 34 23 22 22 22 22 22 21 15 16 21 19 31 29 26 30 29 26 32 38 36 40 43 40 37 30 35 33 29
35 41 40 35 27 31 33 41 41 35 57 43 33 37 33 23 21 23 26 19 23 20 21 23 25 28 37 34 32 34 29 31 32 34 35 32 32 36 37 35 38 35 43
45 40 41 40 36 35 45 30 44 42 36 51 47 40 36 31 28 29 24 22 22 19 23 26 30 34 34 38 36 35 38 36 39 38 42 40 32 34 39 41 42 44 36
34 37 39 42 39 38 37 37 35 40 40 38 47 49 39 34 32 22 29 28 26 29 25 31 29 29 31 36 42 44 40 41 45 43 41 41 39 36 42 43 42 37 37
41 44 45 41 44 44 38 42 38 41 39 45 47 44 41 38 25 31 37 32 29 27 33 32 32 34 26 35 37 37 39 43 49 53 56 57 52 44 42 46 49 42 40
36 39 40 44 46 45 41 43 45 47 47 49 51 41 39 36 36 38 42 45 42 40 40 38 36 29 32 43 43 42 49 53 56 53 57 60 65 59 55 52 51 51 53
37 36 40 43 46 46 44 45 45 47 48 50 48 45 42 40 38 40 44 42 38 37 34 35 36 33 42 45 47 50 53 56 53 50 54 58 62 61 58 54 60 59 57
35 40 40 44 46 45 45 44 41 40 42 46 46 44 43 44 40 32 31 32 36 34 32 27 30 40 50 48 48 51 54 57 59 65 68 73 71 66 57 56 60 57 56
30 34 39 42 45 48 51 47 43 42 44 42 44 45 41 44 39 37 34 35 38 27 22 30 38 37 43 48 54 60 62 52 50 53 58 64 69 69 65 56 59 63 66
19 22 39 44 48 52 51 51 47 45 43 47 42 41 40 46 39 41 41 37 36 33 34 25 32 38 44 47 51 47 44 45 43 48 53 51 48 57 53 51 56 53 58
31 28 23 37 47 55 56 55 51 49 47 45 42 40 40 53 47 46 42 40 36 34 32 29 36 31 35 35 38 38 38 37 35 38 40 43 33 24 32 38 45 41 51
32 26 33 38 41 52 56 56 59 55 51 51 47 50 49 47 50 46 45 38 34 30 30 28 26 28 28 29 34 35 28 27 29 38 45 44 38 32 37 42 44 47 46
37 35 28 30 37 45 55 63 58 61 58 54 51 52 50 47 55 44 37 38 33 25 24 23 23 21 22 25 29 32 25 23 25 25 31 32 33 24 22 25 28 28 33
39 40 39 38 39 40 51 62 71 56 52 37 37 42 46 52 63 44 28 35 29 24 17 18 14 18 17 22 25 32 30 22 21 20 23 23 21 24 19 18 18 20 22
49 45 36 36 36 29 40 35 32 20 39 36 55 63 64 48 58 41 31 28 28 22 19 12 10 18 23 20 17 26 36 28 22 20 20 20 19 21 22 18 16 14 16
52 51 43 39 35 32 30 16 12 52 60 83 86 70 68 69 60 45 42 36 35 26 17 16 14 14 20 19 16 24 32 33 28 24 23 24 24 18 16 19 18 18 16
58 54 47 44 36 35 31 29 11 16 37 60 66 69 67 66 51 48 46 38 31 20 18 20 17 15 15 16 12 22 35 34 35 32 31 28 26 25 21 21 21 19 17
58 52 48 46 37 33 24 27 17 25 27 25 42 50 47 45 45 48 44 36 27 25 15 17 21 15 17 8 12 21 25 30 34 33 36 32 29 29 30 30 27 27 25
56 57 55 50 44 44 36 29 26 29 32 22 29 41 46 51 51 51 44 36 33 23 16 29 19 18 16 13 5 8 15 11 22 19 25 25 27 28 30 19 30 31 38
54 57 54 54 52 40 29 28 31 38 40 40 39 34 41 53 52 49 42 37 36 31 20 16 21 16 16 3 4 4 3 2 6 9 13 17 23 22 26 19 20 17 26
56 55 56 61 57 52 46 37 38 37 41 40 46 49 42 38 50 42 32 29 32 26 27 29 24 15 10 11 8 8 5 1 4 4 7 10 16 21 10 17 20 21 14
60 56 68 50 57 50 45 43 35 33 38 41 36 47 48 40 48 38 39 37 40 32 28 18 10 20 18 12 9 7 9 11 7 3 8 7 12 21 21 22 24 26 30
59 62 67 58 48 58 56 54 45 41 46 42 47 56 53 49 46 52 40 38 38 37 31 25 20 21 34 24 24 24 25 26 26 27 27 25 26 19 28 24 27 31 32
61 63 54 55 58 67 59 56 45 45 45 51 54 56 54 44 39 40 37 33 36 35 41 38 35 29 25 31 30 29 31 31 35 38 41 41 38 35 32 25 31 35 33
55 51 55 52 43 45 48 48 41 49 56 55 53 53 49 52 44 39 33 33 50 46 48 41 38 36 37 36 34 33 36 37 33 31 27 19 14 17 21 24 30 29 25
Wind_Direction_500mb
201 220 218 218 219 216 206 210 225 216 232 211 232 234 229 230 230 244 257 254 268 280 250 267 281 296 287 278 283 288 296 289 307 305 311 341 314 306 256 277 273 261 263
219 218 217 222 223 217 208 214 235 218 209 204 206 216 243 237 233 245 253 245 244 268 275 285 281 280 290 297 309 307 314 311 295 293 287 294 303 294 288 276 267 265 264
221 218 214 224 229 221 227 225 225 227 229 224 225 234 239 243 230 241 250 239 240 261 269 276 290 291 288 291 277 283 285 297 300 298 292 295 290 287 286 282 270 275 265
209 211 217 217 221 223 227 237 229 227 228 233 233 237 242 242 239 229 249 253 252 252 257 263 266 275 279 285 290 287 286 286 288 290 296 297 289 284 283 282 285 284 280
207 209 220 224 221 222 221 228 225 227 233 236 227 234 239 236 230 228 237 255 269 266 255 262 269 277 276 278 292 300 291 284 283 283 278 285 288 281 279 289 274 275 280
219 220 215 225 228 230 225 223 228 231 235 241 231 232 230 223 216 234 251 251 249 257 262 260 267 271 270 287 282 285 283 284 281 281 281 277 274 272 280 281 281 275 275
242 226 225 227 230 235 235 228 227 232 236 232 232 227 229 229 215 236 243 252 260 253 258 270 277 282 271 271 280 277 279 282 277 277 276 277 280 277 272 271 273 274 273
243 250 243 241 240 237 234 241 239 233 230 228 225 224 226 231 236 233 243 253 256 261 270 276 279 282 278 281 280 280 283 283 280 279 280 280 276 276 274 272 269 270 271
238 241 240 239 239 242 239 240 241 235 229 224 222 222 223 229 232 229 240 248 258 267 272 270 274 277 282 287 292 290 287 286 285 280 272 263 264 269 271 274 273 269 269
260 253 248 243 241 239 243 243 240 233 229 228 227 226 224 231 232 229 234 244 255 259 259 265 280 290 297 297 297 296 298 300 296 298 292 279 267 263 260 255 259 262 259
274 256 252 251 243 242 243 243 239 234 227 228 223 225 224 231 233 234 240 244 247 239 252 250 268 276 286 298 302 304 303 303 303 306 314 304 283 262 261 266 264 263 261
275 266 262 251 249 246 243 239 237 237 230 224 220 224 224 236 237 241 248 254 245 252 256 255 270 291 302 310 318 317 302 298 312 324 329 333 326 285 278 266 272 264 256
308 295 274 256 255 249 241 240 236 230 228 221 225 224 226 237 251 254 253 246 244 240 252 273 281 291 300 321 327 328 314 315 326 323 322 318 312 295 274 262 264 271 268
296 300 292 287 278 269 253 242 237 231 225 216 220 230 229 235 253 258 243 238 238 244 255 268 279 292 315 324 343 337 325 296 304 306 309 314 331 309 288 289 275 268 271
290 285 287 292 277 275 270 259 239 226 220 223 239 245 240 237 246 261 248 233 230 238 258 271 298 304 303 315 335 350 352 334 336 330 321 326 332 328 328 308 296 289 282
277 283 285 295 276 279 290 299 291 251 244 237 252 243 253 253 246 253 235 224 221 243 254 229 255 285 307 321 346 9 7 1 350 349 349 346 339 331 322 310 319 308 296
274 267 267 271 276 279 272 301 295 193 204 217 243 242 241 242 235 226 232 232 236 243 238 198 241 269 285 315 353 19 19 19 20 16 8 6 358 359 350 352 341 317 309
278 264 259 261 262 266 255 254 236 238 216 219 229 235 238 233 218 220 226 230 229 229 240 199 231 248 259 298 346 33 27 32 39 32 26 23 24 27 14 5 358 348 336
270 266 258 255 255 250 250 221 234 231 239 241 223 224 222 213 212 218 222 230 215 195 187 200 229 228 246 263 310 27 15 33 29 32 36 38 35 38 41 30 25 23 32
263 263 246 247 250 239 237 233 238 233 220 228 229 214 206 203 208 218 222 213 204 200 212 215 218 223 238 261 226 332 334 7 9 3 359 16 16 24 32 37 18 17 17
252 259 241 241 245 249 241 225 229 226 227 217 211 230 230 219 215 214 210 210 202 192 211 210 212 213 230 117 98 71 55 32 350 29 14 10 5 354 349 358 347 355 9
251 257 250 241 230 231 237 228 220 223 222 227 229 216 233 216 210 207 199 184 183 191 228 206 212 232 176 193 210 194 145 250 354 20 17 7 1 355 11 356 350 330 338
243 250 253 253 225 228 225 219 215 216 224 219 209 205 210 211 201 198 207 217 210 196 205 202 204 201 201 187 196 212 185 208 180 269 280 309 315 329 330 334 326 336 341
242 248 235 237 229 236 219 213 211 227 223 216 209 205 205 202 199 203 209 214 202 202 199 190 200 215 184 189 213 233 242 251 264 275 291 298 292 291 289 284 310 301 302
243 241 236 229 230 229 224 229 226 223 223 209 205 203 204 200 201 199 202 193 204 198 187 179 200 196 208 235 241 251 261 268 273 282 287 290 291 289 292 303 301 298 298
245 246 247 251 255 238 221 218 235 222 202 196 196 198 203 205 201 205 213 222 180 181 181 188 205 218 231 241 250 263 277 285 291 292 293 300 318 293 291 296 301 311 310
Wind_Speed_850mb
30 36 33 33 35 36 39 37 33 45 37 42 35 33 28 25 23 22 22 23 16 16 16 20 22 21 24 26 26 21 17 25 29 29 29 26 9 13 16 17 27 31 34
33 37 37 34 30 32 42 41 35 53 39 36 30 32 34 23 22 22 22 22 22 21 15 16 21 19 31 29 26 30 29 26 32 38 36 40 43 40 37 30 35 33 29
35 41 40 35 27 31 33 41 41 35 57 43 33 37 33 23 21 23 26 19 23 20 21 23 25 28 37 34 32 34 29 31 32 34 35 32 32 36 37 35 38 35 43
45 40 41 40 36 35 45 30 44 42 36 51 47 40 36 31 28 29 24 22 22 19 23 26 30 34 34 38 36 35 38 36 39 38 42 40 32 34 39 41 42 44 36
34 37 39 42 39 38 37 37 35 40 40 38 47 49 39 34 32 22 29 28 26 29 25 31 29 29 31 36 42 44 40 41 45 43 41 41 39 36 42 43 42 37 37
41 44 45 41 44 44 38 42 38 41 39 45 47 44 41 38 25 31 37 32 29 27 33 32 32 34 26 35 37 37 39 43 49 53 56 57 52 44 42 46 49 42 40
36 39 40 44 46 45 41 43 45 47 47 49 51 41 39 36 36 38 42 45 42 40 40 38 36 29 32 43 43 42 49 53 56 53 57 60 65 59 55 52 51 51 53
37 36 40 43 46 46 44 45 45 47 48 50 48 45 42 40 38 40 44 42 38 37 34 35 36 33 42 45 47 50 53 56 53 50 54 58 62 61 58 54 60 59 57
35 40 40 44 46 45 45 44 41 40 42 46 46 44 43 44 40 32 31 32 36 34 32 27 30 40 50 48 48 51 54 57 59 65 68 73 71 66 57 56 60 57 56
30 34 39 42 45 48 51 47 43 42 44 42 44 45 41 44 39 37 34 35 38 27 22 30 38 37 43 48 54 60 62 52 50 53 58 64 69 69 65 56 59 63 66
19 22 39 44 48 52 51 51 47 45 43 47 42 41 40 46 39 41 41 37 36 33 34 25 32 38 44 47 51 47 44 45 43 48 53 51 48 57 53 51 56 53 58
31 28 23 37 47 55 56 55 51 49 47 45 42 40 40 53 47 46 42 40 36 34 32 29 36 31 35 35 38 38 38 37 35 38 40 43 33 24 32 38 45 41 51
32 26 33 38 41 52 56 56 59 55 51 51 47 50 49 47 50 46 45 38 34 30 30 28 26 28 28 29 34 35 28 27 29 38 45 44 38 32 37 42 44 47 46
37 35 28 30 37 45 55 63 58 61 58 54 51 52 50 47 55 44 37 38 33 25 24 23 23 21 22 25 29 32 25 23 25 25 31 32 33 24 22 25 28 28 33
39 40 39 38 39 40 51 62 71 56 52 37 37 42 46 52 63 44 28 35 29 24 17 18 14 18 17 22 25 32 30 22 21 20 23 23 21 24 19 18 18 20 22
49 45 36 36 36 29 40 35 32 20 39 36 55 63 64 48 58 41 31 28 28 22 19 12 10 18 23 20 17 26 36 28 22 20 20 20 19 21 22 18 16 14 16
52 51 43 39 35 32 30 16 12 52 60 83 86 70 68 69 60 45 42 36 35 26 17 16 14 14 20 19 16 24 32 33 28 24 23 24 24 18 16 19 18 18 16
58 54 47 44 36 35 31 29 11 16 37 60 66 69 67 66 51 48 46 38 31 20 18 20 17 15 15 16 12 22 35 34 35 32 31 28 26 25 21 21 21 19 17
58 52 48 46 37 33 24 27 17 25 27 25 42 50 47 45 45 48 44 36 27 25 15 17 21 15 17 8 12 21 25 30 34 33 36 32 29 29 30 30 27 27 25
56 57 55 50 44 44 36 29 26 29 32 22 29 41 46 51 51 51 44 36 33 23 16 29 19 18 16 13 5 8 15 11 22 19 25 25 27 28 30 19 30 31 38
54 57 54 54 52 40 29 28 31 38 40 40 39 34 41 53 52 49 42 37 36 31 20 16 21 16 16 3 4 4 3 2 6 9 13 17 23 22 26 19 20 17 26
56 55 56 61 57 52 46 37 38 37 41 40 46 49 42 38 50 42 32 29 32 26 27 29 24 15 10 11 8 8 5 1 4 4 7 10 16 21 10 17 20 21 14
60 56 68 50 57 50 45 43 35 33 38 41 36 47 48 40 48 38 39 37 40 32 28 18 10 20 18 12 9 7 9 11 7 3 8 7 12 21 21 22 24 26 30
59 62 67 58 48 58 56 54 45 41 46 42 47 56 53 49 46 52 40 38 38 37 31 25 20 21 34 24 24 24 25 26 26 27 27 25 26 19 28 24 27 31 32
61 63 54 55 58 67 59 56 45 45 45 51 54 56 54 44 39 40 37 33 36 35 41 38 35 29 25 31 30 29 31 31 35 38 41 41 38 35 32 25 31 35 33
55 51 55 52 43 45 48 48 41 49 56 55 53 53 49 52 44 39 33 33 50 46 48 41 38 36 37 36 34 33 36 37 33 31 27 19 14 17 21 24 30 29 25
Wind_Direction_850mb
201 220 218 218 219 216 206 210 225 216 232 211 232 234 229 230 230 244 257 254 268 280 250 267 281 296 287 278 283 288 296 289 307 305 311 341 314 306 256 277 273 261 263
219 218 217 222 223 217 208 214 235 218 209 204 206 216 243 237 233 245 253 245 244 268 275 285 281 280 290 297 309 307 314 311 295 293 287 294 303 294 288 276 267 265 264
221 218 214 224 229 221 227 225 225 227 229 224 225 234 239 243 230 241 250 239 240 261 269 276 290 291 288 291 277 283 285 297 300 298 292 295 290 287 286 282 270 275 265
209 211 217 217 221 223 227 237 229 227 228 233 233 237 242 242 239 229 249 253 252 252 257 263 266 275 279 285 290 287 286 286 288 290 296 297 289 284 283 282 285 284 280
207 209 220 224 221 222 221 228 225 227 233 236 227 234 239 236 230 228 237 255 269 266 255 262 269 277 276 278 292 300 291 284 283 283 278 285 288 281 279 289 274 275 280
219 220 215 225 228 230 225 223 228 231 235 241 231 232 230 223 216 234 251 251 249 257 262 260 267 271 270 287 282 285 283 284 281 281 281 277 274 272 280 281 281 275 275
242 226 225 227 230 235 235 228 227 232 236 232 232 227 229 229 215 236 243 252 260 253 258 270 277 282 271 271 280 277 279 282 277 277 276 277 280 277 272 271 273 274 273
243 250 243 241 240 237 234 241 239 233 230 228 225 224 226 231 236 233 243 253 256 261 270 276 279 282 278 281 280 280 283 283 280 279 280 280 276 276 274 272 269 270 271
238 241 240 239 239 242 239 240 241 235 229 224 222 222 223 229 232 229 240 248 258 267 272 270 274 277 282 287 292 290 287 286 285 280 272 263 264 269 271 274 273 269 269
260 253 248 243 241 239 243 243 240 233 229 228 227 226 224 231 232 229 234 244 255 259 259 265 280 290 297 297 297 296 298 300 296 298 292 279 267 263 260 255 259 262 259
274 256 252 251 243 242 243 243 239 234 227 228 223 225 224 231 233 234 240 244 247 239 252 250 268 276 286 298 302 304 303 303 303 306 314 304 283 262 261 266 264 263 261
275 266 262 251 249 246 243 239 237 237 230 224 220 224 224 236 237 241 248 254 245 252 256 255 270 291 302 310 318 317 302 298 312 324 329 333 326 285 278 266 272 264 256
308 295 274 256 255 249 241 240 236 230 228 221 225 224 226 237 251 254 253 246 244 240 252 273 281 291 300 321 327 328 314 315 326 323 322 318 312 295 274 262 264 271 268
296 300 292 287 278 269 253 242 237 231 225 216 220 230 229 235 253 258 243 238 238 244 255 268 279 292 315 324 343 337 325 296 304 306 309 314 331 309 288 289 275 268 271
290 285 287 292 277 275 270 259 239 226 220 223 239 245 240 237 246 261 248 233 230 238 258 271 298 304 303 315 335 350 352 334 336 330 321 326 332 328 328 308 296 289 282
277 283 285 295 276 279 290 299 291 251 244 237 252 243 253 253 246 253 235 224 221 243 254 229 255 285 307 321 346 9 7 1 350 349 349 346 339 331 322 310 319 308 296
274 267 267 271 276 279 272 301 295 193 204 217 243 242 241 242 235 226 232 232 236 243 238 198 241 269 285 315 353 19 19 19 20 16 8 6 358 359 350 352 341 317 309
278 264 259 261 262 266 255 254 236 238 216 219 229 235 238 233 218 220 226 230 229 229 240 199 231 248 259 298 346 33 27 32 39 32 26 23 24 27 14 5 358 348 336
270 266 258 255 255 250 250 221 234 231 239 241 223 224 222 213 212 218 222 230 215 195 187 200 229 228 246 263 310 27 15 33 29 32 36 38 35 38 41 30 25 23 32
263 263 246 247 250 239 237 233 238 233 220 228 229 214 206 203 208 218 222 213 204 200 212 215 218 223 238 261 226 332 334 7 9 3 359 16 16 24 32 37 18 17 17
252 259 241 241 245 249 241 225 229 226 227 217 211 230 230 219 215 214 210 210 202 192 211 210 212 213 230 117 98 71 55 32 350 29 14 10 5 354 349 358 347 355 9
251 257 250 241 230 231 237 228 220 223 222 227 229 216 233 216 210 207 199 184 183 191 228 206 212 232 176 193 210 194 145 250 354 20 17 7 1 355 11 356 350 330 338
243 250 253 253 225 228 225 219 215 216 224 219 209 205 210 211 201 198 207 217 210 196 205 202 204 201 201 187 196 212 185 208 180 269 280 309 315 329 330 334 326 336 341
242 248 235 237 229 236 219 213 211 227 223 216 209 205 205 202 199 203 209 214 202 202 199 190 200 215 184 189 213 233 242 251 264 275 291 298 292 291 289 284 310 301 302
243 241 236 229 230 229 224 229 226 223 223 209 205 203 204 200 201 199 202 193 204 198 187 179 200 196 208 235 241 251 261 268 273 282 287 290 291 289 292 303 301 298 298
245 246 247 251 255 238 221 218 235 222 202 196 196 198 203 205 201 205 213 222 180 181 181 188 205 218 231 241 250 263 277 285 291 292 293 300 318 293 291 296 301 311 310